Location: El Conde
(10.2895°N, 67.2409°W)
Time: 19:41:20
(UTC+00:00)

Cosmos 2150 Rocket - Pass Details

Date: 19 May 2024
Orbit: 747 x 806 km, 74.0° (Epoch: 11 June)

Event Time Altitude Azimuth Distance (km) Brightness Sun altitude
Rises 23:24:09 0° 357° (N) 3,275 7.6 -9.9°
Reaches altitude 10° 23:26:37 10° 3° (N) 2,354 6.8 -10.5°
Maximum altitude 23:31:46 47° 77° (ENE) 1,054 4.4 -11.7°
Enters shadow 23:36:45 11° 149° (SSE) 2,303 6.0 -12.8°
